This demonstration page uses our WeatherBlox Daily Observations layout. Learn more.

Left ArrowRight Arrow

36.17497, -115.13722

Hourly Observations for July 8, 2021

Temp ( °F °C ) Dew Point ( °F °C ) Humidity (%) Winds ( mph kmh ) Pressure ( in mb ) Visibility ( mi km ) Precip ( " mm )
12:53 am 00:53 Clear 101 38.3 42 5.6 13 13 S 6 9 29.63 1004 10 16 0.00 0.00
1:53 am 01:53 Clear 98 36.7 44 6.7 16 16 NE 8 13 29.63 1004 10 16 0.00 0.00
2:53 am 02:53 Clear 94 34.4 41 5 16 16 SE 5 7 29.65 1004 10 16 0.00 0.00
3:53 am 03:53 Clear 93 33.9 44 6.7 18 18 Calm 29.66 1005 10 16 0.00 0.00
4:53 am 04:53 Clear 90 32.2 43 6.1 19 19 NW 5 7 29.68 1005 10 16 0.00 0.00
5:53 am 05:53 Sunny 91 32.8 50 10 25 25 NNE 6 9 29.70 1006 10 16 0.00 0.00
6:53 am 06:53 Sunny 93 33.9 50 10 23 23 NNE 5 7 29.72 1007 10 16 0.00 0.00
7:53 am 07:53 Sunny 94 34.4 48 8.9 21 21 E 5 7 29.75 1007 10 16 0.00 0.00
8:53 am 08:53 Sunny 96 35.6 49 9.4 20 20 ESE 6 9 29.76 1008 10 16 0.00 0.00
9:53 am 09:53 Sunny 101 38.3 49 9.4 17 17 SE 5 7 29.76 1008 10 16 0.00 0.00
10:53 am 10:53 Sunny 105 40.6 50 10 16 16 E 7 11 29.75 1008 10 16 0.00 0.00
11:53 am 11:53 Sunny 109 42.8 51 10.6 15 15 ENE 9 15 29.74 1007 10 16 0.00 0.00
12:53 pm 12:53 Sunny 111 43.9 51 10.6 14 14 E 15 24 29.72 1007 10 16 0.00 0.00
1:45 pm 13:45 Sunny 113 45 45 7.2 10 10 SSE 8 13 29.51 999 10 16 0.00 0.00
1:53 pm 13:53 Sunny 113 45 45 7.2 10 10 ESE 9 15 29.70 1006 10 16 0.00 0.00
2:53 pm 14:53 Sunny 114 45.6 50 10 12 12 E 15 24 29.68 1005 10 16 0.00 0.00
3:53 pm 15:53 Sunny 114 45.6 51 10.6 13 13 ESE 13 20 29.67 1005 10 16 0.00 0.00
4:53 pm 16:53 Sunny 114 45.6 51 10.6 13 13 E 18 30 29.65 1004 10 16 0.00 0.00
5:53 pm 17:53 Sunny 113 45 50 10 12 12 ESE 17 28 29.63 1004 10 16 0.00 0.00
6:53 pm 18:53 Sunny 112 44.4 50 10 13 13 E 9 15 29.63 1004 10 16 0.00 0.00
7:53 pm 19:53 Sunny 111 43.9 44 6.7 10 10 W 8 13 29.65 1004 10 16 0.00 0.00
8:53 pm 20:53 Clear 109 42.8 43 6.1 11 11 WSW 8 13 29.67 1005 10 16 0.00 0.00
9:53 pm 21:53 Clear 107 41.7 44 6.7 12 12 WSW 8 13 29.70 1006 10 16 0.00 0.00
10:53 pm 22:53 Clear 101 38.3 52 11.1 19 19 WNW 3 6 29.71 1006 10 16 0.00 0.00
11:53 pm 23:53 Clear 99 37.2 54 12.2 22 22 W 5 7 29.72 1006 10 16 0.00 0.00

Powered by AerisWeather